Weather in Chigorak

Russia / Voronezh Oblast     51°25′43″N   42°09′43″E
temp.,
°C
wind,
m/s
gust,
m/s
humid.,
%
clouds,
%
prec.,
mm/h
press.,
hPa
HPBL,
m
4 august, wed
wed400:00+21nw3377100 0.3 101154
03:00+19nw369696 6.8 1013227
06:00+20ne24916 1.3 1013214
09:00+23w126934 1.6 1013898
12:00+25nnw435653 0.8 10141401
15:00+26n454971 1.7 10141981
18:00+23nnw5949100 0.0 1015395
21:00+19nnw345936 0.0 101650
5 august, thu
thu500:00+18nne35640 0.0 101683
03:00+16n23622 0.0 101732
06:00+17n23630 0.0 101884
09:00+23nne224351 0.0 1018610
12:00+27nnw22335 0.0 10172320
15:00+28nnw2229100 0.0 10172487
18:00+27ne223444 0.0 10161148
21:00+20e464948 0.0 101697
6 august, fri
fri600:00+18e375338 0.0 1016110
03:00+17se385681 0.0 1016126
06:00+18se37575 0.0 1016174
09:00+25sse46373 0.0 1016690
12:00+30sse442968 0.0 10152041
15:00+31sse442687 0.0 10132426
18:00+29se46315 0.0 1013566
21:00+23ese4839100 0.0 1013107
7 august, sat
sat700:00+21ese4124446 0.0 1013224
03:00+19se4134485 0.0 1013248
06:00+20se41243100 0.0 1014276
09:00+27se5829100 0.0 1014606
12:00+31se56225 0.0 10131684
15:00+33se562099 0.0 10122153
18:00+31ese5824100 0.0 1011519
21:00+24e493299 0.0 1012123
8 august, sun
sun800:00+25e51331100 0.0 1011275
03:00+24ese41331100 0.0 1011274
06:00+25ese3827100 0.0 1011207
09:00+29se6924100 0.0 1010543
12:00+30e4524100 0.0 1010464
15:00+29ese6928100 0.0 1010944
18:00+30se6112632 0.0 1010688
21:00+22ese344952 0.2 101056